Location: Alphen
(52.1351°N, 4.6549°E)
Time: 01:30:35
(UTC+00:00)

Cosmos 1953 - Pass Details

Date: 27 January 2021
Orbit: 539 x 556 km, 82.5° (Epoch: 27 February)

Event Time Altitude Azimuth Distance (km) Brightness Sun altitude
Exits shadow 05:32:36 20° 336° (NNW) 1,276 3.9 -17.7°
Drops below altitude 10° 05:34:15 10° 353° (N) 1,815 4.8 -17.4°
Sets 05:36:37 0° 4° (N) 2,712 5.8 -17.1°
